Location: Blackfoot
(53.5367°N, 112.7800°W)
Time: 20:58:23
(UTC-06:00)

Amateur Radio Satellites - All Passes

Search period start: 29 May 2016 20:28
Search period end: 30 May 2016 20:28
Location: Blackfoot, 53.5367°N, 112.7800°W

Satellite Date Start Highest point End Downlink Frequencies (MHz)
Time Altitude Azimuth
BEESAT 2 29 May 20:30:56 20:34:53 58° 232° (SW) 20:38:48 435.950
GONETS M04 29 May 20:31:53 20:36:40 16° 68° (ENE) 20:41:26
ZACube-1 29 May 20:31:58 20:34:54 19° 58° (ENE) 20:37:50 437.345
YUBILEINY 29 May 20:32:39 20:37:36 16° 322° (NW) 20:42:34 435.215
O/OREOS (USA 219) 29 May 20:39:16 20:42:31 20° 257° (WSW) 20:45:45 437.305
PCSat 29 May 20:40:07 20:42:57 14° 256° (WSW) 20:45:46 145.827
CUBEBUG 2 29 May 20:46:37 20:50:42 44° 68° (ENE) 20:54:43 437.445
BRITE-PL 29 May 20:51:34 20:53:50 12° 280° (W) 20:56:06 437.365/2234.400
BEESAT 3 29 May 21:01:36 21:04:42 22° 242° (WSW) 21:07:45 437.485
AUBIESAT-1 29 May 21:02:34 21:05:56 27° 257° (WSW) 21:09:09 437.475
GOMX 1 29 May 21:02:36 21:05:51 16° 275° (W) 21:09:03 467.674
HO-68 29 May 21:03:28 21:10:31 59° 258° (WSW) 21:17:36 435.675
SEEDS 29 May 21:04:52 21:09:02 66° 258° (WSW) 21:13:14 437.485
RS-15 29 May 21:06:27 21:18:00 57° 337° (NNW) 21:30:07 29.354- 29.394
CANX-2 29 May 21:07:19 21:11:21 43° 262° (W) 21:15:26 2200.000
FUNcube-1 29 May 21:07:39 21:11:25 34° 66° (ENE) 21:15:11 145.935
CUBESAT XI-V 29 May 21:09:08 21:11:51 15° 308° (NW) 21:14:33 437.345
UWE-3 29 May 21:10:01 21:14:08 52° 70° (ENE) 21:18:13 435.000/436.395/437.385
M-CUBED/EXP-1 PRIME 29 May 21:11:59 21:14:56 20° 260° (W) 21:17:44 437.505
AIST 2 29 May 21:22:21 21:26:26 51° 38° (NE) 21:30:29 435.215
CUTE 1.7 + AOD 2 29 May 21:34:40 21:38:18 28° 266° (W) 21:41:59 437.475
ISS 29 May 21:38:25 21:40:04 13° 142° (SE) 21:41:43 145.825
DOVE 4 29 May 21:40:22 21:42:37 13° 276° (W) 21:44:50 437.250
PRISM 29 May 21:40:49 21:44:46 38° 98° (E) 21:48:39 437.425
STRAND 1 29 May 21:46:38 21:51:39 53° 293° (WNW) 21:56:40 437.568
AAUSAT CUBESAT 2 29 May 21:46:50 21:50:47 42° 262° (W) 21:54:47 437.432
COMPASS 1 29 May 21:46:56 21:50:46 35° 264° (W) 21:54:39 437.405
Oscar 11 29 May 21:47:20 21:51:39 90° 261° (W) 21:56:00 145.826/435.025
CUSAT 1 29 May 21:50:42 21:58:01 38° 59° (ENE) 22:04:23 437.405
CINEMA 3 29 May 21:51:18 21:54:49 21° 269° (W) 21:58:16 145.822/145.860
HUMSAT D 29 May 21:53:58 21:57:32 30° 64° (ENE) 22:01:06 437.325/437.525
DELFI C3 29 May 21:56:21 22:00:16 58° 71° (ENE) 22:04:13 145.870
Cosmos 2504 29 May 21:58:54 22:02:11 13° 325° (NW) 22:05:34 435.465 / 435.565
AIST 1 29 May 22:01:31 22:05:55 78° 99° (E) 22:10:22
DANDE 29 May 22:06:06 22:13:29 32° 55° (NE) 22:20:32 436.750
ZACube-1 29 May 22:06:38 22:10:49 66° 258° (WSW) 22:14:58 437.345
CUBEBUG 1 29 May 22:14:17 22:15:53 12° 50° (NE) 22:17:30 437.445
DX 1 29 May 22:14:48 22:15:37 10° 48° (NE) 22:16:27 434.975-435.025
ESTCUBE 1 29 May 22:15:00 22:17:45 16° 53° (NE) 22:20:30 437.505/2401.250
GONETS M04 29 May 22:23:03 22:31:37 61° 92° (E) 22:40:11
CUBEBUG 2 29 May 22:23:57 22:27:32 25° 267° (W) 22:31:05 437.445
VELOX 1 29 May 22:26:51 22:29:20 15° 52° (NE) 22:31:49 145.980
ANTELSAT 29 May 22:32:11 22:32:57 10° 84° (E) 22:33:42 437.575/2403.000
Cosmos 2499 29 May 22:32:36 22:39:30 43° 86° (E) 22:46:55 435.465 / 435.565
FUNcube-1 29 May 22:43:58 22:47:43 32° 265° (W) 22:51:28 145.935
UWE-3 29 May 22:47:40 22:50:55 21° 269° (W) 22:54:09 435.000/436.395/437.385
HO-68 29 May 22:56:28 22:59:51 14° 280° (W) 23:03:15 435.675
UKube-1 29 May 22:56:45 22:59:44 18° 56° (NE) 23:02:43 .
AIST 2 29 May 23:01:05 23:04:48 31° 238° (WSW) 23:08:28 435.215
AISAT 29 May 23:01:39 23:05:25 27° 61° (ENE) 23:09:10 437.250
ISS 29 May 23:12:48 23:15:54 40° 161° (SSE) 23:19:00 145.825
PRISM 29 May 23:16:20 23:20:00 30° 297° (WNW) 23:23:39 437.425
RS-15 29 May 23:21:30 23:33:10 51° 10° (N) 23:45:10 29.354- 29.394
UNISAT 6 29 May 23:25:14 23:29:06 31° 95° (E) 23:32:59 437.425
Oscar 11 29 May 23:26:24 23:28:28 13° 274° (W) 23:30:32 145.826/435.025
STRAND 1 29 May 23:27:34 23:29:49 13° 314° (NW) 23:32:02 437.568
HUMSAT D 29 May 23:29:20 23:33:07 36° 264° (W) 23:36:55 437.325/437.525
50 SAT 29 May 23:31:20 23:34:48 42° 68° (ENE) 23:38:18 437.505
TIGRISAT 29 May 23:31:52 23:35:48 34° 96° (E) 23:39:46 435.000
DELFI C3 29 May 23:32:45 23:35:31 18° 270° (W) 23:38:18 145.870
CUSAT 1 29 May 23:32:55 23:40:47 67° 263° (W) 23:47:22 437.405
AIST 1 29 May 23:41:14 23:44:08 17° 300° (WNW) 23:47:02
DX 1 29 May 23:46:38 23:50:54 52° 68° (ENE) 23:55:11 434.975-435.025
CUBEBUG 1 29 May 23:46:58 23:51:20 60° 70° (ENE) 23:55:44 437.445
DANDE 29 May 23:48:53 23:57:25 88° 258° (WSW) 00:05:16 436.750
ESTCUBE 1 29 May 23:49:22 23:53:54 84° 73° (ENE) 23:58:30 437.505/2401.250
VELOX 1 30 May 00:00:39 00:05:07 78° 72° (ENE) 00:09:37 145.980
SPROUT 30 May 00:02:38 00:06:36 38° 66° (ENE) 00:10:34 437.525
ANTELSAT 30 May 00:06:09 00:10:28 73° 103° (ESE) 00:14:49 437.575/2403.000
POPSAT HIP 1 30 May 00:14:59 00:18:13 21° 91° (E) 00:21:25 437.405
QB50P1 30 May 00:15:07 00:18:22 21° 92° (E) 00:21:36 145.935-145.965
QB50P2 30 May 00:18:14 00:21:39 24° 92° (E) 00:25:05 145.880/145.840
TISAT 1 30 May 00:18:18 00:21:24 20° 58° (ENE) 00:24:31 437.305
GONETS M04 30 May 00:20:40 00:28:54 43° 296° (WNW) 00:37:09
POLYITAN 1 30 May 00:20:41 00:24:09 24° 93° (E) 00:27:35 437.675
Cosmos 2499 30 May 00:25:15 00:32:31 53° 291° (WNW) 00:40:25 435.465 / 435.565
UKube-1 30 May 00:30:58 00:35:18 77° 256° (WSW) 00:39:41 .
NANOSAT C BR1 30 May 00:31:47 00:35:28 28° 95° (E) 00:39:07 145.865
SO-50 30 May 00:36:52 00:41:03 28° 119° (ESE) 00:45:13 436.795
AISAT 30 May 00:37:21 00:41:42 49° 260° (W) 00:46:04 437.250
YUBILEINY 30 May 00:38:15 00:42:17 14° 33° (NNE) 00:46:17 435.215
SWISSCUBE 30 May 00:39:18 00:41:12 12° 47° (NE) 00:43:06 437.505
ITUPSAT 1 30 May 00:46:41 00:48:45 13° 48° (NE) 00:50:50 437.325
ISS 30 May 00:48:53 00:52:08 63° 181° (S) 00:55:22 145.825
UNISAT 6 30 May 01:01:56 01:05:54 37° 294° (WNW) 01:09:55 437.425
50 SAT 30 May 01:05:55 01:08:45 21° 268° (W) 01:11:35 437.505
BEESAT 30 May 01:07:09 01:10:17 18° 53° (NE) 01:13:26 436.000
TIGRISAT 30 May 01:08:38 01:12:31 34° 295° (WNW) 01:16:26 435.000
DUCHIFAT 1 30 May 01:08:52 01:13:01 59° 102° (ESE) 01:17:08 145.980
JAS-2 30 May 01:09:58 01:15:55 25° 84° (E) 01:21:23 435.910
BUGSAT 1 30 May 01:16:17 01:20:04 36° 97° (E) 01:23:46 437.445
CUSAT 1 30 May 01:16:36 01:21:20 18° 287° (WNW) 01:25:42 437.405
DX 1 30 May 01:23:50 01:27:22 23° 267° (W) 01:30:55 434.975-435.025
CUBEBUG 1 30 May 01:24:39 01:28:00 21° 269° (W) 01:31:22 437.445
ESTCUBE 1 30 May 01:28:41 01:31:21 15° 273° (W) 01:34:04 437.505/2401.250
DANDE 30 May 01:32:38 01:39:18 27° 280° (W) 01:45:36 436.750
RS-15 30 May 01:35:16 01:47:33 80° 41° (NE) 01:59:59 29.354- 29.394
SPROUT 30 May 01:38:49 01:42:39 31° 265° (W) 01:46:28 437.525
VELOX 1 30 May 01:39:21 01:42:09 16° 272° (W) 01:44:59 145.980
ANTELSAT 30 May 01:43:46 01:46:46 19° 303° (WNW) 01:49:46 437.575/2403.000
POPSAT HIP 1 30 May 01:50:13 01:54:19 53° 291° (WNW) 01:58:24 437.405
QB50P1 30 May 01:50:22 01:54:28 52° 291° (WNW) 01:58:32 145.935-145.965
TISAT 1 30 May 01:52:30 01:56:42 63° 257° (WSW) 02:00:54 437.305
QB50P2 30 May 01:53:39 01:57:43 47° 292° (WNW) 02:01:45 145.880/145.840
POLYITAN 1 30 May 01:56:09 02:00:11 46° 292° (WNW) 02:04:12 437.675
Cosmos 2504 30 May 01:56:37 01:59:26 12° 33° (NNE) 02:02:19 435.465 / 435.565
NANOSAT C BR1 30 May 02:07:24 02:11:18 39° 294° (WNW) 02:15:13 145.865
UKube-1 30 May 02:10:45 02:12:08 11° 275° (W) 02:13:31 .
SWISSCUBE 30 May 02:13:25 02:18:03 56° 68° (ENE) 02:22:45 437.505
SO-50 30 May 02:16:21 02:21:14 68° 318° (NW) 02:26:07 436.795
ITUPSAT 1 30 May 02:21:00 02:25:41 59° 69° (ENE) 02:30:24 437.325
Cosmos 2499 30 May 02:23:23 02:28:01 17° 319° (NW) 02:32:52 435.465 / 435.565
Oscar 19 30 May 02:23:24 02:28:00 31° 94° (E) 02:32:32 437.125/150
GONETS M04 30 May 02:24:23 02:28:49 14° 325° (NW) 02:33:15
ISS 30 May 02:25:18 02:28:21 37° 200° (SSW) 02:31:24 145.825
YUBILEINY 30 May 02:34:14 02:42:21 40° 62° (ENE) 02:50:27 435.215
BEESAT 30 May 02:42:41 02:47:27 88° 73° (ENE) 02:52:16 436.000
DUCHIFAT 1 30 May 02:45:15 02:48:23 21° 301° (WNW) 02:51:30 145.980
BUGSAT 1 30 May 02:51:51 02:55:23 29° 297° (WNW) 02:58:54 437.445
JAS-2 30 May 02:54:20 03:02:00 89° 287° (WNW) 03:08:51 435.910
KKS-1 30 May 02:56:07 02:59:38 23° 58° (ENE) 03:03:08 437.445
Gurwin Techsat 1B 30 May 03:07:26 03:12:16 34° 95° (E) 03:17:04 435.225
ITAMSAT 1 30 May 03:11:34 03:14:54 17° 87° (E) 03:18:12 435.822/435.867
STARS 30 May 03:24:29 03:27:56 23° 59° (ENE) 03:31:24 437.465
MOZHAYETS 4 30 May 03:30:24 03:34:28 33° 63° (ENE) 03:38:34
Cosmos 2491 30 May 03:39:26 03:46:58 33° 81° (E) 03:54:30 435.465 / 435.565
RS-15 30 May 03:48:09 03:59:26 46° 248° (WSW) 04:10:44 29.354- 29.394
Cosmos 2504 30 May 03:48:28 03:55:59 35° 61° (ENE) 04:03:49 435.465 / 435.565
SWISSCUBE 30 May 03:52:18 03:56:12 25° 268° (W) 04:00:08 437.505
SO-50 30 May 03:58:20 04:02:31 27° 342° (NNW) 04:06:40 436.795
ITUPSAT 1 30 May 04:00:04 04:03:54 24° 268° (W) 04:07:46 437.325
Oscar 19 30 May 04:02:34 04:07:33 49° 294° (WNW) 04:12:29 437.125/150
ISS 30 May 04:02:56 04:04:07 12° 220° (SW) 04:05:19 145.825
AO-7 30 May 04:21:41 04:28:51 30° 92° (E) 04:35:59 29.400- 29.500
BEESAT 30 May 04:23:04 04:25:56 16° 273° (W) 04:28:48 436.000
YUBILEINY 30 May 04:31:08 04:39:46 66° 267° (W) 04:48:25 435.215
KKS-1 30 May 04:31:27 04:35:53 60° 258° (WSW) 04:40:19 437.445
JAS-2 30 May 04:39:54 04:46:07 28° 311° (NW) 04:51:54 435.910
Gurwin Techsat 1B 30 May 04:47:18 04:52:24 48° 295° (WNW) 04:57:29 435.225
ITAMSAT 1 30 May 04:49:52 04:55:08 89° 108° (ESE) 05:00:23 435.822/435.867
STARS 30 May 04:59:39 05:04:00 58° 258° (WSW) 05:08:22 437.465
CUBESAT XI-V 30 May 05:03:01 05:07:16 35° 64° (ENE) 05:11:33 437.345
MOZHAYETS 4 30 May 05:07:16 05:11:34 40° 263° (W) 05:15:55
Cosmos 2491 30 May 05:34:18 05:43:08 75° 284° (WNW) 05:52:00 435.465 / 435.565
SO-50 30 May 05:40:34 05:44:24 23° 6° (N) 05:48:11 436.795
Cosmos 2504 30 May 05:41:47 05:50:07 74° 264° (W) 05:58:53 435.465 / 435.565
HORYU 2 30 May 05:42:53 05:46:39 27° 94° (E) 05:50:25 437.375
Oscar 19 30 May 05:43:50 05:45:46 12° 315° (NW) 05:47:42 437.125/150
STRAND 1 30 May 05:53:12 05:56:25 17° 50° (NE) 05:59:38 437.568
AO-85 30 May 06:03:03 06:07:39 28° 117° (ESE) 06:12:07 145.980
RS-15 30 May 06:05:01 06:08:21 11° 273° (W) 06:11:41 29.354- 29.394
AO-7 30 May 06:14:08 06:22:33 82° 295° (WNW) 06:30:56 29.400- 29.500
NOAA 18 30 May 06:22:38 06:25:36 15° 85° (E) 06:28:35 137.9125
Cosmos 2499 30 May 06:23:56 06:24:40 10° 26° (NNE) 06:25:23 435.465 / 435.565
JAS-2 30 May 06:26:52 06:28:43 11° 335° (NNW) 06:30:32 435.910
GONETS M04 30 May 06:28:56 06:33:33 15° 36° (NE) 06:38:08
Gurwin Techsat 1B 30 May 06:29:14 06:31:11 12° 316° (NW) 06:33:09 435.225
YUBILEINY 30 May 06:29:35 06:34:51 18° 290° (WNW) 06:40:07 435.215
ITAMSAT 1 30 May 06:30:14 06:34:00 21° 307° (NW) 06:37:47 435.822/435.867
CUBESAT XI-V 30 May 06:40:14 06:44:38 39° 264° (W) 06:49:05 437.345
CUTE-I 30 May 06:45:58 06:49:46 19° 88° (E) 06:53:33 437.470
LilacSat-2 30 May 06:57:32 07:00:06 17° 90° (E) 07:02:40 437.200
PRISM 30 May 07:04:01 07:05:35 12° 51° (NE) 07:07:08 437.425
BRITE-PL 30 May 07:07:43 07:12:22 32° 92° (E) 07:16:38 437.365/2234.400
GOMX 1 30 May 07:18:15 07:21:38 19° 87° (E) 07:24:52 467.674
HORYU 2 30 May 07:19:10 07:23:25 46° 293° (WNW) 07:27:40 437.375
SO-50 30 May 07:21:31 07:26:04 39° 30° (NNE) 07:30:28 436.795
NOAA 15 30 May 07:24:34 07:29:44 48° 99° (E) 07:34:51 137.62
STRAND 1 30 May 07:29:44 07:34:50 76° 70° (ENE) 07:39:59 437.568
Cosmos 2491 30 May 07:34:54 07:41:45 24° 310° (NW) 07:48:37 435.465 / 435.565
Cosmos 2504 30 May 07:36:28 07:42:13 21° 286° (WNW) 07:48:09 435.465 / 435.565
Cubesat XI-IV 30 May 07:39:47 07:44:58 47° 99° (E) 07:50:08 437.490
AO-85 30 May 07:42:24 07:47:50 75° 317° (NW) 07:53:03 145.980
DOVE 4 30 May 07:52:32 07:55:41 19° 88° (E) 07:58:44 437.250
NOAA 18 30 May 08:01:44 08:07:14 75° 105° (ESE) 08:12:44 137.9125
AIST 1 30 May 08:02:01 08:06:08 39° 71° (ENE) 08:10:13
AO-7 30 May 08:07:29 08:14:22 30° 318° (NW) 08:21:15 29.400- 29.500
Cosmos 2499 30 May 08:14:17 08:21:28 29° 56° (NE) 08:28:52 435.465 / 435.565
HO-68 30 May 08:24:33 08:29:51 22° 87° (E) 08:35:07 435.675
GONETS M04 30 May 08:25:06 08:33:22 44° 65° (ENE) 08:41:34
CUTE-I 30 May 08:25:06 08:30:30 83° 287° (WNW) 08:35:53 437.470
LilacSat-2 30 May 08:31:02 08:34:45 54° 289° (WNW) 08:38:27 437.200
PRISM 30 May 08:35:59 08:40:07 66° 70° (ENE) 08:44:18 437.425
SEEDS 30 May 08:43:29 08:45:52 14° 87° (E) 08:48:14 437.485
BRITE-PL 30 May 08:46:03 08:51:03 46° 294° (WNW) 08:55:37 437.365/2234.400
CANX-2 30 May 08:46:06 08:49:28 22° 91° (E) 08:52:50 2200.000
GOMX 1 30 May 08:55:33 09:00:19 66° 289° (WNW) 09:04:42 467.674
UNISAT 6 30 May 08:57:13 08:58:24 11° 50° (NE) 08:59:34 437.425
SO-50 30 May 09:02:07 09:06:47 57° 233° (SW) 09:11:18 436.795
TIGRISAT 30 May 09:03:19 09:04:51 12° 51° (NE) 09:06:23 435.000
NOAA 15 30 May 09:04:38 09:09:24 35° 300° (WNW) 09:14:09 137.62
STRAND 1 30 May 09:10:53 09:14:37 20° 271° (W) 09:18:22 437.568
CUTE 1.7 + AOD 2 30 May 09:12:26 09:16:21 33° 96° (E) 09:20:15 437.475
O/OREOS (USA 219) 30 May 09:18:39 09:22:07 22° 103° (ESE) 09:25:34 437.305
Cubesat XI-IV 30 May 09:20:07 09:24:58 36° 299° (WNW) 09:29:49 437.490
AAUSAT CUBESAT 2 30 May 09:23:00 09:26:11 20° 91° (E) 09:29:21 437.432
COMPASS 1 30 May 09:23:16 09:26:45 24° 92° (E) 09:30:14 437.405
AO-85 30 May 09:24:24 09:29:05 30° 339° (NNW) 09:33:32 145.980
DOVE 4 30 May 09:29:30 09:33:54 61° 289° (WNW) 09:38:04 437.250
Oscar 11 30 May 09:30:05 09:31:35 11° 84° (E) 09:33:04 145.826/435.025
ANTELSAT 30 May 09:35:49 09:39:05 21° 59° (ENE) 09:42:19 437.575/2403.000
CINEMA 3 30 May 09:38:01 09:42:11 58° 101° (ESE) 09:46:16 145.822/145.860
AIST 1 30 May 09:39:53 09:43:37 28° 271° (W) 09:47:19
NOAA 18 30 May 09:43:03 09:47:26 25° 306° (NW) 09:51:50 137.9125
PCSat 30 May 09:43:24 09:48:01 29° 113° (ESE) 09:52:39 145.827
ZACube-1 30 May 09:49:21 09:51:51 15° 88° (E) 09:54:22 437.345
JAS-2 30 May 09:49:53 09:51:58 11° 26° (NNE) 09:54:03 435.910
AO-7 30 May 10:00:36 10:04:35 14° 344° (NNW) 10:08:35 29.400- 29.500
CUTE-I 30 May 10:06:09 10:09:51 19° 309° (NW) 10:13:34 437.470
CUBEBUG 2 30 May 10:07:12 10:11:08 40° 98° (E) 10:15:07 437.445
Cosmos 2499 30 May 10:07:14 10:15:49 88° 79° (E) 10:24:45 435.465 / 435.565
AUBIESAT-1 30 May 10:08:52 10:12:12 68° 109° (ESE) 10:15:30 437.475
HO-68 30 May 10:11:25 10:18:39 84° 108° (ESE) 10:25:52 435.675
PRISM 30 May 10:13:04 10:15:53 17° 270° (W) 10:18:44 437.425
SEEDS 30 May 10:17:53 10:22:09 82° 286° (WNW) 10:26:25 437.485
M-CUBED/EXP-1 PRIME 30 May 10:18:21 10:21:39 77° 293° (WNW) 10:24:55 437.505
CANX-2 30 May 10:21:27 10:25:38 53° 290° (WNW) 10:29:49 2200.000
GONETS M04 30 May 10:22:06 10:30:34 58° 269° (W) 10:38:58
FUNcube-1 30 May 10:24:56 10:28:37 29° 95° (E) 10:32:22 145.935
BRITE-PL 30 May 10:26:49 10:28:14 11° 316° (NW) 10:29:38 437.365/2234.400
UWE-3 30 May 10:29:16 10:33:19 47° 99° (E) 10:37:25 435.000/436.395/437.385
UNISAT 6 30 May 10:30:03 10:34:18 59° 71° (ENE) 10:38:31 437.425
DUCHIFAT 1 30 May 10:33:00 10:35:39 16° 56° (NE) 10:38:17 145.980
GOMX 1 30 May 10:35:14 10:37:27 13° 311° (NW) 10:39:38 467.674
TIGRISAT 30 May 10:36:31 10:40:46 64° 72° (ENE) 10:45:01 435.000
BUGSAT 1 30 May 10:40:12 10:41:13 11° 51° (NE) 10:42:14 437.445
SO-50 30 May 10:45:13 10:46:16 11° 252° (WSW) 10:47:18 436.795
CUTE 1.7 + AOD 2 30 May 10:48:19 10:52:13 35° 295° (WNW) 10:56:07 437.475
O/OREOS (USA 219) 30 May 10:56:36 11:01:08 63° 304° (WNW) 11:05:39 437.305
AAUSAT CUBESAT 2 30 May 10:57:52 11:02:01 55° 290° (WNW) 11:06:07 437.432
COMPASS 1 30 May 10:58:29 11:02:33 46° 292° (WNW) 11:06:35 437.405
BEESAT 3 30 May 10:59:23 11:01:04 12° 112° (ESE) 11:02:44 437.485
CUSAT 1 30 May 11:00:23 11:06:00 25° 79° (E) 11:12:09 437.405
DELFI C3 30 May 11:02:28 11:06:18 40° 98° (E) 11:10:07 145.870
Oscar 11 30 May 11:04:06 11:08:29 78° 103° (ESE) 11:12:50 145.826/435.025
HUMSAT D 30 May 11:06:11 11:09:33 23° 92° (E) 11:12:56 437.325/437.525
AO-85 30 May 11:06:53 11:11:00 23° 3° (N) 11:14:52 145.980
DOVE 4 30 May 11:09:14 11:10:41 11° 311° (NW) 11:12:07 437.250
ANTELSAT 30 May 11:11:13 11:15:29 60° 258° (WSW) 11:19:44 437.575/2403.000
POPSAT HIP 1 30 May 11:13:14 11:17:06 36° 65° (ENE) 11:20:58 437.405
QB50P1 30 May 11:13:18 11:17:11 36° 65° (ENE) 11:21:04 145.935-145.965
CINEMA 3 30 May 11:15:53 11:19:01 21° 301° (WNW) 11:22:06 145.822/145.860
QB50P2 30 May 11:16:37 11:20:36 40° 66° (ENE) 11:24:34 145.880/145.840
POLYITAN 1 30 May 11:19:06 11:23:04 41° 67° (ENE) 11:27:03 437.675
DANDE 30 May 11:23:46 11:28:07 19° 73° (ENE) 11:33:01 436.750
ZACube-1 30 May 11:24:29 11:28:41 75° 287° (WNW) 11:32:55 437.345
PCSat 30 May 11:25:38 11:31:04 68° 314° (NW) 11:36:31 145.827
JAS-2 30 May 11:28:15 11:34:34 28° 49° (NE) 11:40:57 435.910
NANOSAT C BR1 30 May 11:29:42 11:33:46 48° 68° (ENE) 11:37:50 145.865
ESTCUBE 1 30 May 11:37:19 11:39:05 12° 84° (E) 11:40:52 437.505/2401.250
CUBEBUG 2 30 May 11:44:08 11:47:42 28° 297° (WNW) 11:51:16 437.445
AUBIESAT-1 30 May 11:44:27 11:46:20 14° 309° (NW) 11:48:12 437.475
AO-7 30 May 11:50:29 11:54:02 13° 12° (NNE) 11:57:37 29.400- 29.500
SEEDS 30 May 11:54:58 11:57:13 14° 306° (NW) 11:59:28 437.485
M-CUBED/EXP-1 PRIME 30 May 11:55:01 11:55:39 10° 313° (NW) 11:56:18 437.505
HO-68 30 May 11:59:44 12:05:45 30° 310° (NW) 12:11:46 435.675
FUNcube-1 30 May 12:01:06 12:04:59 37° 293° (WNW) 12:08:53 145.935
Cosmos 2499 30 May 12:01:12 12:08:02 28° 282° (WNW) 12:15:04 435.465 / 435.565
BEESAT 2 30 May 12:06:11 12:09:39 29° 121° (ESE) 12:13:08 435.950
UWE-3 30 May 12:06:12 12:09:37 25° 298° (WNW) 12:13:02 435.000/436.395/437.385
DUCHIFAT 1 30 May 12:06:37 12:10:50 82° 256° (WSW) 12:15:04 145.980
UNISAT 6 30 May 12:08:15 12:11:24 20° 269° (W) 12:14:34 437.425
Oscar 19 30 May 12:09:25 12:12:55 19° 52° (NE) 12:16:26 437.125/150
BUGSAT 1 30 May 12:11:41 12:15:48 60° 71° (ENE) 12:19:54 437.445
UKube-1 30 May 12:13:36 12:15:11 12° 86° (E) 12:16:46 .
TIGRISAT 30 May 12:14:56 12:17:55 18° 270° (W) 12:20:53 435.000
GONETS M04 30 May 12:21:03 12:25:24 15° 293° (WNW) 12:29:47
AISAT 30 May 12:21:33 12:24:54 21° 91° (E) 12:28:14 437.250
50 SAT 30 May 12:28:14 12:31:15 23° 93° (E) 12:34:14 437.505
BEESAT 3 30 May 12:34:08 12:38:05 76° 131° (SE) 12:42:03 437.485
AAUSAT CUBESAT 2 30 May 12:36:08 12:36:38 10° 310° (NW) 12:37:07 437.432
DELFI C3 30 May 12:37:37 12:41:03 27° 297° (WNW) 12:44:28 145.870
O/OREOS (USA 219) 30 May 12:38:34 12:41:27 16° 326° (NW) 12:44:21 437.305
CUSAT 1 30 May 12:39:58 12:47:05 88° 100° (E) 12:55:14 437.405
Oscar 11 30 May 12:41:12 12:44:07 18° 304° (WNW) 12:47:02 145.826/435.025
HUMSAT D 30 May 12:41:25 12:45:26 48° 291° (WNW) 12:49:28 437.325/437.525
AO-85 30 May 12:48:07 12:52:47 36° 27° (NNE) 12:57:04 145.980
POPSAT HIP 1 30 May 12:49:09 12:52:56 31° 264° (W) 12:56:45 437.405
QB50P1 30 May 12:49:15 12:53:02 31° 265° (W) 12:56:49 145.935-145.965
QB50P2 30 May 12:52:52 12:56:32 28° 266° (W) 13:00:12 145.880/145.840
POLYITAN 1 30 May 12:55:24 12:59:01 27° 266° (W) 13:02:40 437.675
Gurwin Techsat 1B 30 May 12:56:56 13:00:50 21° 53° (NE) 13:04:44 435.225
ITAMSAT 1 30 May 13:00:07 13:01:53 12° 44° (NE) 13:03:38 435.822/435.867
ZACube-1 30 May 13:02:24 13:04:19 13° 306° (NW) 13:06:14 437.345
DANDE 30 May 13:03:07 13:09:25 72° 98° (E) 13:17:21 436.750
DX 1 30 May 13:04:30 13:08:37 39° 98° (E) 13:12:42 434.975-435.025
CUBEBUG 1 30 May 13:05:21 13:09:39 49° 100° (E) 13:13:52 437.445
NANOSAT C BR1 30 May 13:06:21 13:09:45 23° 268° (W) 13:13:10 145.865
AIST 2 30 May 13:06:59 13:08:02 11° 110° (ESE) 13:09:06 435.215
PCSat 30 May 13:10:53 13:15:25 26° 338° (NNW) 13:19:58 145.827
JAS-2 30 May 13:10:58 13:18:38 83° 71° (ENE) 13:26:34 435.910
ESTCUBE 1 30 May 13:12:07 13:16:43 77° 104° (ESE) 13:21:16 437.505/2401.250
SPROUT 30 May 13:17:57 13:21:43 29° 95° (E) 13:25:26 437.525
VELOX 1 30 May 13:20:45 13:25:12 65° 103° (ESE) 13:29:34 145.980
TISAT 1 30 May 13:31:26 13:33:30 13° 87° (E) 13:35:32 437.305
AO-7 30 May 13:37:38 13:44:04 26° 38° (NE) 13:50:31 29.400- 29.500
Cosmos 2491 30 May 13:40:05 13:47:10 26° 51° (NE) 13:54:10 435.465 / 435.565
BEESAT 2 30 May 13:43:26 13:47:20 51° 321° (NW) 13:51:17 435.950
DUCHIFAT 1 30 May 13:45:46 13:47:14 12° 275° (W) 13:48:43 145.980
Oscar 19 30 May 13:46:21 13:51:34 82° 72° (ENE) 13:56:48 437.125/150
UKube-1 30 May 13:47:38 13:51:59 80° 105° (ESE) 13:56:19 .
BUGSAT 1 30 May 13:48:35 13:51:34 19° 269° (W) 13:54:32 437.445
HO-68 30 May 13:49:12 13:51:19 11° 335° (NNW) 13:53:26 435.675
AISAT 30 May 13:57:24 14:01:46 59° 291° (WNW) 14:06:06 437.250
50 SAT 30 May 14:01:37 14:05:08 40° 292° (WNW) 14:08:38 437.505
BEESAT 3 30 May 14:12:44 14:16:10 27° 333° (NNW) 14:19:37 437.485
CUSAT 1 30 May 14:23:54 14:30:18 31° 306° (NW) 14:37:16 437.405
AO-85 30 May 14:28:47 14:33:38 66° 231° (SW) 14:38:01 145.980
Gurwin Techsat 1B 30 May 14:34:51 14:40:11 87° 254° (WSW) 14:45:33 435.225
ITAMSAT 1 30 May 14:35:16 14:40:12 47° 65° (ENE) 14:45:11 435.822/435.867
BEESAT 30 May 14:37:36 14:40:15 15° 86° (E) 14:42:54 436.000
DX 1 30 May 14:40:52 14:44:45 31° 297° (WNW) 14:48:35 434.975-435.025
AIST 2 30 May 14:41:38 14:45:43 64° 130° (SE) 14:49:51 435.215
CUBEBUG 1 30 May 14:42:05 14:45:43 26° 299° (WNW) 14:49:20 437.445
DANDE 30 May 14:47:03 14:53:05 34° 304° (NW) 15:00:17 436.750
ESTCUBE 1 30 May 14:49:48 14:53:03 19° 304° (NW) 14:56:16 437.505/2401.250
SPROUT 30 May 14:53:48 14:57:46 39° 294° (WNW) 15:01:43 437.525
PCSat 30 May 14:56:40 15:00:37 20° 4° (N) 15:04:33 145.827
VELOX 1 30 May 14:57:55 15:01:17 21° 302° (WNW) 15:04:38 145.980
JAS-2 30 May 14:58:00 15:04:28 29° 273° (W) 15:11:09 435.910
TISAT 1 30 May 15:05:33 15:09:46 86° 288° (WNW) 15:13:56 437.305
HORYU 2 30 May 15:14:19 15:15:22 11° 48° (NE) 15:16:24 437.375
BEESAT 2 30 May 15:23:02 15:26:01 20° 344° (NNW) 15:29:00 435.950
UKube-1 30 May 15:24:39 15:27:32 18° 305° (NW) 15:30:24 .
AO-7 30 May 15:27:22 15:35:35 70° 62° (ENE) 15:43:52 29.400- 29.500
Oscar 19 30 May 15:27:55 15:31:33 19° 272° (W) 15:35:11 437.125/150
AISAT 30 May 15:35:51 15:37:23 12° 311° (NW) 15:38:56 437.250
Cosmos 2491 30 May 15:36:45 15:45:36 81° 77° (ENE) 15:54:21 435.465 / 435.565
YUBILEINY 30 May 15:44:29 15:51:54 33° 81° (E) 15:59:22 435.215
SWISSCUBE 30 May 15:44:38 15:49:22 55° 101° (E) 15:54:05 437.505
BEESAT 3 30 May 15:52:29 15:55:02 16° 356° (N) 15:57:36 437.485
ITUPSAT 1 30 May 15:52:36 15:57:22 57° 101° (E) 16:02:07 437.325
RS-15 30 May 16:11:02 16:18:44 21° 96° (E) 16:26:39 29.354- 29.394
AO-85 30 May 16:11:15 16:13:06 12° 253° (WSW) 16:14:53 145.980
CUSAT 1 30 May 16:12:41 16:15:25 12° 332° (NNW) 16:18:13 437.405
BEESAT 30 May 16:13:57 16:18:47 86° 106° (ESE) 16:23:36 436.000
ITAMSAT 1 30 May 16:15:12 16:19:51 33° 265° (W) 16:24:34 435.822/435.867
KKS-1 30 May 16:16:46 16:19:43 17° 89° (E) 16:22:38 437.445
Gurwin Techsat 1B 30 May 16:17:34 16:20:56 17° 274° (W) 16:24:19 435.225
NOAA 18 30 May 16:17:47 16:20:12 13° 43° (NE) 16:22:36 137.9125
AIST 2 30 May 16:20:47 16:24:31 31° 331° (NNW) 16:28:16 435.215
DANDE 30 May 16:35:35 16:38:52 13° 330° (NNW) 16:42:21 436.750
CUTE-I 30 May 16:37:20 16:39:55 14° 46° (NE) 16:42:29 437.470
Cosmos 2504 30 May 16:38:01 16:42:58 20° 73° (ENE) 16:48:07 435.465 / 435.565
PCSat 30 May 16:40:48 16:45:39 31° 29° (NNE) 16:50:30 145.827
TISAT 1 30 May 16:42:31 16:44:50 15° 306° (NW) 16:47:06 437.305
STARS 30 May 16:43:28 16:46:17 17° 89° (E) 16:49:06 437.465
HORYU 2 30 May 16:46:42 16:51:01 53° 68° (ENE) 16:55:20 437.375
BRITE-PL 30 May 16:47:54 16:51:30 17° 51° (NE) 16:55:02 437.365/2234.400
MOZHAYETS 4 30 May 16:55:31 16:59:40 31° 94° (E) 17:03:47
GOMX 1 30 May 16:57:53 16:59:21 11° 46° (NE) 17:00:46 467.674
BEESAT 2 30 May 17:02:30 17:05:12 17° 8° (N) 17:07:54 435.950
NOAA 15 30 May 17:12:29 17:17:00 29° 58° (ENE) 17:21:31 137.62
HO-68 30 May 17:17:41 17:20:30 13° 28° (NNE) 17:23:18 435.675
AO-7 30 May 17:21:27 17:28:58 37° 265° (W) 17:36:35 29.400- 29.500
SWISSCUBE 30 May 17:22:53 17:26:56 27° 301° (WNW) 17:30:58 437.505
Cubesat XI-IV 30 May 17:29:31 17:33:59 28° 57° (ENE) 17:38:29 437.490
BEESAT 3 30 May 17:30:53 17:34:02 22° 20° (NNE) 17:37:09 437.485
ITUPSAT 1 30 May 17:30:56 17:34:56 26° 301° (WNW) 17:38:55 437.325
Cosmos 2491 30 May 17:34:23 17:41:35 30° 281° (W) 17:48:45 435.465 / 435.565
YUBILEINY 30 May 17:39:23 17:48:04 73° 285° (WNW) 17:56:49 435.215
O/OREOS (USA 219) 30 May 17:42:03 17:45:48 25° 43° (NE) 17:49:32 437.305
LilacSat-2 30 May 17:45:34 17:48:33 22° 62° (ENE) 17:51:33 437.200
KKS-1 30 May 17:52:22 17:56:49 73° 288° (WNW) 18:01:13 437.445
BEESAT 30 May 17:52:42 17:56:01 19° 306° (NW) 17:59:20 436.000
NOAA 18 30 May 17:54:28 17:59:43 50° 64° (ENE) 18:04:59 137.9125
AIST 2 30 May 18:01:18 18:04:09 18° 354° (N) 18:07:01 435.215
CUTE-I 30 May 18:13:45 18:18:55 55° 67° (ENE) 18:24:08 437.470
RS-15 30 May 18:17:24 18:28:41 66° 122° (ESE) 18:40:35 29.354- 29.394
STARS 30 May 18:18:48 18:23:11 74° 288° (WNW) 18:27:32 437.465
BRITE-PL 30 May 18:23:26 18:29:06 69° 71° (ENE) 18:34:41 437.365/2234.400
PCSat 30 May 18:24:12 18:29:41 85° 232° (SW) 18:35:07 145.827
HORYU 2 30 May 18:24:22 18:27:53 23° 268° (W) 18:31:25 437.375
Cosmos 2504 30 May 18:27:37 18:34:58 78° 98° (E) 18:42:53 435.465 / 435.565
CUBESAT XI-V 30 May 18:29:59 18:34:19 35° 95° (E) 18:38:37 437.345
GOMX 1 30 May 18:31:10 18:36:19 45° 66° (ENE) 18:41:15 467.674
MOZHAYETS 4 30 May 18:32:35 18:36:57 42° 294° (WNW) 18:41:19
BEESAT 2 30 May 18:40:27 18:44:07 33° 31° (NNE) 18:47:46 435.950
NOAA 15 30 May 18:51:13 18:56:29 61° 258° (WSW) 19:01:47 137.62
HO-68 30 May 18:59:59 19:06:14 34° 52° (NE) 19:12:30 435.675
DOVE 4 30 May 19:03:03 19:07:50 43° 67° (ENE) 19:12:25 437.250
BEESAT 3 30 May 19:08:25 19:12:23 67° 43° (NE) 19:16:19 437.485
Cubesat XI-IV 30 May 19:08:30 19:13:45 62° 258° (WSW) 19:19:05 437.490
CINEMA 3 30 May 19:10:07 19:13:19 19° 58° (ENE) 19:16:27 145.822/145.860
LilacSat-2 30 May 19:19:03 19:22:41 43° 261° (W) 19:26:19 437.200
O/OREOS (USA 219) 30 May 19:21:10 19:25:38 66° 245° (WSW) 19:30:03 437.305
AUBIESAT-1 30 May 19:26:42 19:30:12 34° 60° (ENE) 19:33:29 437.475
KKS-1 30 May 19:30:24 19:32:40 14° 308° (NW) 19:34:55 437.445
STRAND 1 30 May 19:34:46 19:37:58 16° 86° (E) 19:41:10 437.568
NOAA 18 30 May 19:35:40 19:40:35 34° 264° (W) 19:45:33 137.9125
M-CUBED/EXP-1 PRIME 30 May 19:36:11 19:40:00 49° 63° (ENE) 19:43:32 437.505
CUBEBUG 2 30 May 19:37:40 19:39:33 13° 53° (NE) 19:41:25 437.445
YUBILEINY 30 May 19:40:02 19:46:40 23° 311° (NW) 19:53:22 435.215
AIST 2 30 May 19:40:41 19:43:58 22° 18° (NNE) 19:47:16 435.215
SEEDS 30 May 19:40:59 19:44:18 23° 61° (ENE) 19:47:39 437.485
CANX-2 30 May 19:44:45 19:48:34 34° 65° (ENE) 19:52:26 2200.000
CUSAT 1 30 May 19:45:42 19:48:29 12° 29° (NNE) 19:51:11 437.405
CUTE-I 30 May 19:54:43 19:59:18 29° 267° (W) 20:03:56 437.470
STARS 30 May 19:56:38 19:58:50 14° 308° (NW) 20:01:01 437.465
UWE-3 30 May 19:58:26 20:00:38 14° 54° (NE) 20:02:49 435.000/436.395/437.385
BRITE-PL 30 May 20:03:19 20:08:01 26° 271° (W) 20:12:41 437.365/2234.400
CUBESAT XI-V 30 May 20:07:22 20:11:46 39° 295° (WNW) 20:16:08 437.345
PCSat 30 May 20:08:38 20:12:21 19° 253° (WSW) 20:16:04 145.827
GOMX 1 30 May 20:09:30 20:14:29 36° 265° (W) 20:19:20 467.674
DANDE 30 May 20:10:27 20:13:34 12° 28° (NNE) 20:16:42 436.750
CUTE 1.7 + AOD 2 30 May 20:10:58 20:15:04 52° 69° (ENE) 20:19:12 437.475
BEESAT 2 30 May 20:18:15 20:22:10 54° 232° (SW) 20:26:04 435.950
AAUSAT CUBESAT 2 30 May 20:19:07 20:22:46 31° 64° (ENE) 20:26:27 437.432
COMPASS 1 30 May 20:19:54 20:23:43 37° 66° (ENE) 20:27:35 437.405
